STARLINK-38073, 69986

Orbit data source: Space-Track

STARLINK-38073, 69986 is a payload satellite owned by SpaceX/Seattle (US) in SSO that was launched on Sat, 11 Jul 2026 UTC via an FALCON 9 launch vehicle from the Air Force Western Test Range (AFWTR). Payload-class satellites include a variety of spacecraft equipped with specific instruments for various scientific and technological missions. These include communications satellites like Starlink; space stations such as the ISS; scientific satellites like the Hubble; Earth observation satellites from companies like Planet Labs, Umbra, and HawkEye 360; GPS; miniature CubeSats for education and research; and military/defense satellites.

Loading next visibility...
Identifier
69986, 2026-159M
Orbit
SSO
Country
Flag of USUS
Related business
Manufacturer
SpaceX/Seattle
Mission
Operational spacecraft
Bus & Motor
STARLINK V2MO, Unknown motor
Mass
575 kg wet, ~530 kg dry
Launch date (UTC)
2026-07-11 (2 months ago)
Launch vehicle
FALCON 9
Launch site
Air Force Western Test Range (AFWTR)
Object type
Payload
Rocket body
Debris
Shape & HBR
BOX + PAN, 17.7 m
Radar Cross Section
Large (>1 m²)

Expand to show TLE details & history
Last TLE update: 22 hours ago

TLE from 22 hours ago
0 STARLINK-38073
1 69986U 26159M   26264.08863910  .00015729  00000-0  29010-3 0  9995
2 69986  97.2846 105.8410 0002593  84.0336 276.1211 15.49205691 12531
Epoch: 2026-09-21T02:07Z
TLE epoch observation values (Epoch: 2026-09-21T02:07:38.418Z)
Latitude
0.00002°
Longitude
73.95744°
Altitude
421.994 km
Speed
7.658 km/s
True Right ascension
07h 03m 21s
True Declination
0° 00' 00"
Sunlit
Object was in daylight at epoch
Visualization orbit readout
Latitude
Unknown
Longitude
Unknown
Altitude
Unknown
Speed
Unknown
Apparent Right ascension
Unknown
Apparent Declination
Unknown
Sunlit
N/A
Visualization observer readout
Local Sidereal Time
17:24:23
Azimuth
Unknown
Elevation
Unknown
Doppler factor
Unknown
Orbital elements
Apogee altitude
417.732 km
Perigee altitude
414.209 km
Semi-major axis
6,794.107 km
Eccentricity
0.00026
Inclination
97.2846°
RAAN
105.841°
Arg. of periapsis
84.0336°
True anomaly
276.09155°
Mean anomaly
276.1211°
Eccentric anomaly
276.10633°
Mean motion
3.87565 °/min
Orbital period
92.89 mins
BSTAR
0.0002901
Loading maneuver chart data...
Computing Atmospheric mass density...
Loading historical data...
Loading historical data...
Loading historical data...
Loading historical data...
Loading historical data...
Loading historical data...
Loading historical data...

Documentation

Showing up to 5 results
|